Home | Message Board | State Rep Blog | FAQs | Results | Photos | Grand Prix Info | Clubs | Archives | Links


   

RRCA

2010 Grand Prix Race Results

Race Results Index

2010 Chile Pepper XC 10K
Fayetteville, AR - 10/16/10

Male Overall


Arkansas RRCA Grand Prix Racing Series

Overall Female

Rank First Name Last Name City State Time Pace
1 Alison Rush Bentonville, AR 37:08.99 5:59
2 Katie Ruhala Lucas, TX 37:46.24 6:05
3 Olivia Campbell Harrison, AR 38:45.82 6:15
4 Melissa Sinning Cabot, AR 42:51.60 6:54
5 Hege Eileen Unknown, NA 43:11.85 6:58
6 Miranda Oswald Omaha, NE 43:34.29 7:01
7 Kristin Depp New Orleans, LA 43:45.69 7:03
8 Sarah King Little Rock, AR 43:50.40 7:04
9 Jennifer Fall Fayetteville, AR 43:54.92 7:05
10 Pauline Allen Fayetteville, AR 43:59.86 7:05
11 Melody Zechiedrich Rogers, AR 44:07.97 7:07
12 Kayla Waldrup Rogers, AR 44:23.64 7:09
13 Katrina Paulson Lebanon, MO 44:27.80 7:10
14 Kristen Thibodeaux Fayetteville, AR 44:29.36 7:10
15 Sarah Olney Little Rock, AR 44:42.52 7:12
16 Maggie Mathis Little Rock, AR 44:48.39 7:13
17 Ginny Lantz Austin, AR 44:56.23 7:14
18 Alison Jumper Fayetteville, AR 45:18.48 7:18
19 Sue Senty Rogers, AR 45:29.47 7:20
20 Andrea Sieczkowski Maumelle, AR 45:29.97 7:20
21 Becky Angeles Murphy, TX 45:57.82 7:24
22 Kindra Younce Fayetteville, AR 46:00.42 7:25
23 Katy Fowler Fayetteville, AR 46:01.71 7:25
24 Katie Ranallo Fayetteville, AR 46:06.57 7:26
25 Sarah Rowland Fayetteville, AR 46:26.44 7:29
26 Nadia Khan Austin, TX 46:33.62 7:30
27 Kelsey Rea Allen, TX 46:34.91 7:30
28 Anjanette Levings Unknown, NA 46:36.29 7:31
29 Zulema Nevarez Austin, TX 46:55.55 7:34
30 Carolyn Armour Pea Ridge, AR 47:02.00 7:35
31 Mary Krug Heber Springs, AR 47:11.18 7:36
32 Ali Pilkington Fayetteville, AR 47:13.91 7:37
33 Corryn Hall Poteau, OK 47:32.82 7:40
34 Kristin Kley Fayetteville, AR 47:51.14 7:43
35 Becky Effurd Rogers, AR 47:55.89 7:43
36 Kristi Edwards Springfield, MO 48:04.12 7:45
37 Anna Holyfield Webb City, MO 48:05.66 7:45
38 Shannon Snow Lowell, AR 48:06.00 7:45
39 Jennifer Henry Edmond, OK 48:08.75 7:45
40 Lisa Mills Rogers, AR 48:13.13 7:46
41 Becky Humes Little Rock, AR 48:17.34 7:47
42 Donna Boyd Rogers, AR 48:18.15 7:47
43 Alex Mejia Fayetteville, AR 48:21.57 7:48
44 Lisa Stancil Springdale, AR 48:22.92 7:48
45 Rebecca Hall Springdale, AR 48:23.89 7:48
46 Mary Lynn Flory Winslow, AR 48:34.50 7:50
47 Cindy Knott Farmington, AR 48:37.34 7:50
48 Anna Williams Colcord, OK 48:38.13 7:50
49 Codi Fritchie Lee'S Summit, MO 48:51.80 7:52
50 Heidi Zerby Oklahoma City, OK 48:56.78 7:53
51 Leslie Johnson Fayetteville, AR 48:58.59 7:53
52 Kim Gardner Unknown, NA 49:00.27 7:54
53 Kyla Templeton Unknown, NA 49:00.32 7:54
54 Amy Fulmer Bentonville, AR 49:04.90 7:54
55 Kelly Frantz Perryville, AR 49:08.17 7:55
56 Meaghan Dayton Fayetteville, AR 49:14.50 7:56
57 Alyssa Peiser Fayetteville, AZ 49:17.27 7:56
58 Catherine Carlson Rogers, AR 49:19.00 7:57
59 Diane Diebold Springfield, MO 49:25.45 7:58
60 Jenny Johnson Little Rock, AR 49:32.44 7:59
61 Lisa Vorwerk Dover, AR 49:35.91 7:59
62 Janet Gilker Fort Smith, AR 49:45.10 8:01
63 Kim Schleif Fayetteville, TX 49:50.20 8:02
64 Bernita Lovelace Conway, AR 49:55.13 8:03
65 Karen Miller Rogers, AR 50:05.49 8:04
66 Christy Dinges Edmond, OK 50:05.55 8:04
67 Amber Krauft Springdale, AR 50:10.40 8:05
68 Britt-Iren Tefre Norway, - 50:12.93 8:05
69 Lynne Williams Fayetteville, AR 50:19.53 8:06
70 Jenna Cox Fayetteville, AR 50:21.31 8:07
71 Meagan Leber Broken Arrow, OK 50:24.39 8:07
72 Deanna Cicatiello Rogers, AR 50:25.45 8:07
73 Lori Terloun Bentonville, AR 50:33.20 8:09
74 Jana Owens Maumelle, AR 50:33.68 8:09
75 Claire Bise Springfield, MO 50:44.63 8:11
76 Nakia Smith Rogers, AR 50:51.21 8:12
77 Deborah Lashley Fort Smith, AR 50:52.98 8:12
78 Katie May Springdale, AR 51:03.59 8:14
79 Beth Brown Bentonville, AR 51:07.60 8:14
80 Amy Knight Fayetteville, AR 51:08.27 8:14
81 Jennifer Lewis Fayetteville, AR 51:15.67 8:16
82 Jessica Guillory Eureka Springs, AR 51:23.67 8:17
83 Paula Storment Fayetteville, AR 51:26.67 8:17
84 Katie Brown Van Buren, AR 51:31.90 8:18
85 Theresa Thibado Fayetteville, AR 51:32.10 8:18
86 Katherine Austin Fayetteville, AR 51:39.79 8:19
87 Nicole Nodi Fayetteville, AR 51:44.51 8:20
88 Allison Hall Tupelo, MS 51:45.38 8:20
89 Anna Hill Tupelo, MS 51:45.70 8:20
90 Julie Shadwick Niangua, MO 51:46.77 8:21
91 Jimalea Blackwell Farmington, AR 51:48.75 8:21
92 Jamie Humeycutt Fayetteville, AR 51:52.10 8:21
93 Sandy Tush Bentonville, AR 51:55.23 8:22
94 Jessica Jacobs Bentonville, AR 52:00.85 8:23
95 Courtney Cagle Fayetteville, AR 52:08.17 8:24
96 Sue Taylor Springdale, AR 52:13.96 8:25
97 Beth Zachary Fayetteville, AR 52:15.75 8:25
98 Karen Morales Siloam Springs, AR 52:32.99 8:28
99 Alise Atha Little Rock, AR 52:34.28 8:28
100 Katie Bell Fayetteville, AR 52:36.33 8:29
101 Lacie Hewlett Rogers, AR 52:36.36 8:29
102 Danaown Hill Oklahoma City, OK 52:44.82 8:30
103 Jill Summerford Lake Catherine, AR 52:53.25 8:31
104 Mandy Cordell Hot Springs, AR 52:55.63 8:32
105 Vicki Fuhrhop Troy, IL 53:28.71 8:37
106 Jessica Dorrell Fayetteville, AR 53:39.39 8:39
107 Nancy Mayes Claremore, OK 54:07.31 8:43
108 Anna Heintz Fayetteville, AR 54:15.91 8:45
109 Rachel Hancock Fayetteville, AR 54:26.19 8:46
110 Mandy Sayer Unknown, NA 54:27.93 8:46
111 Kristy Williams Greenwood, AR 54:32.52 8:47
112 Lori Haynie Bentonville, AR 54:46.10 8:49
113 Laura Velasco Fayetteville, AR 54:55.80 8:51
114 Carla Shelton Hot Springs, AR 54:57.67 8:51
115 Brooke Culp Fayetteville, AR 55:00.39 8:52
116 Holly Shilling Rogers, AR 55:16.23 8:54
117 Shea Foster Little Rock, AR 55:26.50 8:56
118 Sammi Eddie Bentonville, AR 55:32.40 8:57
119 Jennifer Holland Gentry, AR 55:33.20 8:57
120 Aly Rutledge Springdale, AR 55:35.99 8:57
121 Cindy McConnell Fort Smith, AR 55:36.78 8:58
122 Nikki Crenshaw Rogers, AR 55:38.23 8:58
123 Val Oliver Fort Smith, AR 55:47.91 8:59
124 Salinda Young Rogers, AR 55:49.72 9:00
125 Kimberly Martin Fort Smith, AR 55:50.53 9:00
126 Jessica McGaugh Fayetteville, AR 56:02.54 9:02
127 Connie Townzen Rogers, AR 56:05.53 9:02
128 Michele Bond Fayetteville, AR 56:12.90 9:03
129 Sarah Cudney Garfield, AR 56:17.77 9:04
130 Sarah Cassady Rogers, AR 56:21.35 9:05
131 Cheri Wright Bella Vista, AR 56:23.24 9:05
132 Kim Fielden Kansas, OK 56:40.87 9:08
133 Vanessa Tritt Bentonville, AR 56:48.60 9:09
134 Beth Ann Booth Fayetteville, AR 56:51.75 9:10
135 Jessie Walters Fayette, MO 57:19.27 9:14
136 Shannan Ackerman Lowell, AR 57:20.40 9:14
137 Julie Adams Fayetteville, AR 57:36.98 9:17
138 Whitney Sutherland Unknown, NA 57:37.68 9:17
139 Erica Cox Halfway, MO 57:38.57 9:17
140 Marla Wiggins Sherwood, AR 57:40.80 9:18
141 Marianne Pohl Rogers, AR 57:46.24 9:18
142 Ryan Duffy Rogers, AR 57:46.50 9:18
143 Patti Hammerstein Sherwood, AR 58:04.73 9:21
144 Karren Peters Fayetteville, AR 58:11.80 9:22
145 Lauren Sullivan Bentonville, AR 58:13.83 9:23
146 Kali Pina Bentonville, AR 58:14.81 9:23
147 Tiffany Timmons Fayetteville, AR 58:16.61 9:23
148 Betty Ryan Siloam Springs, AR 58:23.65 9:24
149 Rachel Paul Fayetteville, AR 58:31.98 9:26
150 Kim Brooks Harrison, AR 58:37.70 9:27
151 Debbie Kelly Maumelle, AR 58:38.28 9:27
152 Tami Nickerson De Queen, AR 58:40.39 9:27
153 Mary Jo Brinkman Fort Smith, AR 58:41.40 9:27
154 Pam McGill Mayflower, AR 58:57.69 9:30
155 Cindy Langley Benton, AR 59:01.30 9:30
156 Whitney Freeman Centerton, AR 59:01.72 9:31
157 Carrie Steele Kansas, OK 59:15.15 9:33
158 Betsey Goering Wichita, KS 59:20.35 9:34
159 Whittley Johnson Bentonville, AR 59:21.93 9:34
160 Heather Adams Bella Vista, AR 59:31.48 9:35
161 Emily Reams Russellville, AR 59:35.77 9:36
162 Michelle Lehmann Springdale, AR 59:43.15 9:37
163 Taylor Johnson Fayetteville, AR 59:49.69 9:38
164 Rena Goodwin-Lee Fayetteville, AR 1:00:00.47 9:40
165 Cathy Beckham Mountain Home, AR 1:00:07.72 9:41
166 Danette Heckathorn Fayetteville, AR 1:00:11.43 9:42
167 Erica Hill Fort Smith, AR 1:00:11.59 9:42
168 Lori Dobson Tahlequah, OK 1:00:11.68 9:42
169 Alexandra Pappas Fayetteville, AR 1:00:14.53 9:42
170 Sabrina Billings Fayetteville, AR 1:00:14.60 9:42
171 Angela Gattin Benton, AR 1:00:18.20 9:43
172 Julie Speed Bentonville, AR 1:00:19.59 9:43
173 Kaye Chiles Rogers, AR 1:00:42.36 9:47
174 Adriane Foster Bentonville, AR 1:00:42.47 9:47
175 Marilyn McDonald Fayetteville, AR 1:00:45.21 9:47
176 Tori Duphorne Moore, OK 1:00:49.64 9:48
177 Amanda Bunch Siloam Springs, AR 1:00:58.60 9:49
178 Emily Hollingsworth Fayetteville, AR 1:00:59.11 9:49
179 Kristy Morrow Siloam Springs, AR 1:01:01.20 9:50
180 Denise Scott Oklahoma City, OK 1:01:05.73 9:51
181 Celina Crocker Edmond, OK 1:01:05.91 9:51
182 Mandy Krumweide Rogers, AR 1:01:27.62 9:54
183 Dana Channell Bentonville, AR 1:01:27.96 9:54
184 Pamela Talley-Parker Bentonville, AR 1:01:30.24 9:54
185 Pam David Rogers, AR 1:01:30.30 9:54
186 Kristy Sheets Stilwell, OK 1:01:37.10 9:56
187 Laura Sylvester Rogers, AR 1:01:44.32 9:57
188 Lauren Halligan Fayetteville, AR 1:01:46.14 9:57
189 Jaclynn Wright Bella Vista, AR 1:01:52.88 9:58
190 Laurie Pharis Fayetteville, AR 1:02:04.13 10:00
191 Terri Burton Rudy, AR 1:02:19.70 10:02
192 Yvonne Kesler Berryville, AR 1:02:22.90 10:03
193 Laura Bays Bella Vista, AR 1:02:27.22 10:04
194 Lindsey Walker Fayetteville, AR 1:02:48.14 10:07
195 Ginger Roberts West Fork, AR 1:02:59.42 10:09
196 Robyn Brown Fayetteville, AR 1:03:13.49 10:11
197 Jill Guerra Fort Smith, AR 1:03:20.40 10:12
198 Mariah Clardy Bentonville, AR 1:03:21.31 10:12
199 Heidi McMellon Greenwood, AR 1:03:27.30 10:13
200 Lorna Armstrong Van Buren, AR 1:03:28.97 10:14
201 Anna Thomas Bentonville, AR 1:03:44.30 10:16
202 Norma Sandeval Rogers, AR 1:03:44.86 10:16
203 June Haimbach Fayetteville, AR 1:04:18.48 10:22
204 Toni Craise Prairie Grove, AR 1:04:22.14 10:22
205 Lisa Fields Elkins, AR 1:05:15.35 10:31
206 Katie Gehrki Fayetteville, AR 1:05:37.00 10:34
207 Kaitlyn Long Bentonville, AR 1:05:43.48 10:35
208 Kim Johnson Springdale, AR 1:05:52.16 10:37
209 Jennifer Brown Bentonville, AR 1:06:13.56 10:40
210 Maureen McClung Unknown, AR 1:06:27.48 10:42
211 Sarah Hantz Fayetteville, AR 1:06:27.50 10:42
212 Dianne Morrison Hot Springs, AR 1:06:34.44 10:43
213 Sara Johnson Bentonville, AR 1:06:38.92 10:44
214 Amanda Parker Bella Vista, AR 1:06:39.10 10:44
215 Michele Tencleve Fayetteville, AR 1:06:47.68 10:46
216 Emily Richardson Springdale, AR 1:06:52.81 10:46
217 Hazel Fisher Little Rock, AR 1:06:52.86 10:46
218 Emily Laery Fayetteville, AR 1:07:47.72 10:55
219 Anna Cagle Fayetteville, AR 1:08:13.40 10:59
220 Lindsay Adams Bella Vista, AR 1:08:17.90 11:00
221 Laura Ray Fayetteville, AR 1:08:23.40 11:01
222 Flannery Quinn Fayetteville, AR 1:08:24.85 11:01
223 Lauren Potter Bentonville, AR 1:08:24.90 11:01
224 Margie Moldenhauer Fayetteville, AR 1:08:58.56 11:07
225 Kim Wibert Springdale, AR 1:08:59.66 11:07
226 Charity Williams Springdale, AR 1:09:49.58 11:15
227 Brianne Fowlkes Fayetteville, AR 1:09:49.88 11:15
228 Martha Bryant Fayetteville, AR 1:10:22.14 11:20
229 Melissa Gramlich Fayetteville, AR 1:10:23.44 11:20
230 Meredith Mathews Fayetteville, AR 1:10:26.94 11:21
231 Alexandra Kosmitis Fayetteville, AR 1:11:03.11 11:27
232 Pamela Lee Hot Springs Village, AR 1:11:09.60 11:28
233 Lindsay Schupbach Fayetteville, AR 1:11:27.64 11:31
234 Danielle Dunn Fayetteville, AR 1:11:30.47 11:31
235 Tina Hillyard Springdale, AR 1:11:50.66 11:34
236 Anna Sanders Little Rock, AR 1:13:35.21 11:51
237 Jennifer Fuson Fayetteville, AR 1:13:35.26 11:51
238 Staci Vest Fayetteville, AR 1:16:02.11 12:15
239 Debi Davis Tahlequah, OK 1:16:02.92 12:15
240 Dottie Rea Vilonia, AR 1:16:11.46 12:16
241 Rachel Baldini Rogers, AR 1:16:15.12 12:17
242 Becky Christenson Rogers, AR 1:16:42.54 12:21
243 Andi Stracner Mayflower, AR 1:16:51.71 12:23
244 Carla Mize Fayetteville, AR 1:18:09.11 12:35
245 Linda Fason Little Rock, AR 1:19:15.61 12:46
246 Laura Brody Benton, AR 1:19:24.31 12:47
247 Kimberly A. Kastl Fayetteville, AR 1:19:24.48 12:47
248 Jana Muldoon Hot Springs, AR 1:23:26.99 13:26
249 Patsy Bradley Fayetteville, AR 1:25:11.94 13:43
250 Brenda Clark Winslow, AR 1:29:20.24 14:23
251 Vickie Dawson Natural Dam, AR 1:29:21.35 14:23
252 Mary French Perry, AR 1:36:27.68 15:32